Time,TemperatureF,DewpointF,PressureIn,WindDirection,WindDirectionDegrees,WindSpeedMPH,WindSpeedGustMPH,Humidity,HourlyPrecipIn,Conditions,Clouds,dailyrainin,SoftwareType,DateUTC
2013-03-22 00:00:00,25.7,3.0,29.90,NNW,330,4.0,13.0,37,0.00,,,-99.99,Weather View 32 v60,2013-03-22 04:00:00,
2013-03-22 00:10:00,25.7,3.0,29.90,NNW,327,4.0,13.0,37,0.00,,,-99.99,Weather View 32 v60,2013-03-22 04:10:00,
2013-03-22 00:15:00,25.7,3.6,29.90,NNW,336,4.0,13.0,38,0.00,,,-99.99,Weather View 32 v60,2013-03-22 04:15:00,
2013-03-22 00:20:00,25.7,3.6,29.90,WNW,289,5.0,13.0,38,0.00,,,-99.99,Weather View 32 v60,2013-03-22 04:20:00,
2013-03-22 00:30:00,25.5,3.4,29.90,WNW,303,4.0,14.0,38,0.00,,,-99.99,Weather View 32 v60,2013-03-22 04:30:00,
2013-03-22 00:40:00,25.5,3.4,29.90,NW,311,6.0,15.0,38,0.00,,,-99.99,Weather View 32 v60,2013-03-22 04:40:00,
2013-03-22 00:45:00,25.5,3.4,29.90,WNW,298,11.0,15.0,38,0.00,,,-99.99,Weather View 32 v60,2013-03-22 04:45:00,
2013-03-22 00:50:00,25.3,3.3,29.90,WNW,299,13.0,15.0,38,0.00,,,-99.99,Weather View 32 v60,2013-03-22 04:50:00,
2013-03-22 00:55:00,25.3,3.3,29.90,WNW,288,4.0,15.0,38,0.00,,,-99.99,Weather View 32 v60,2013-03-22 04:55:00,
2013-03-22 01:05:00,25.3,3.3,29.90,NW,323,8.0,15.0,38,0.00,,,-99.99,Weather View 32 v60,2013-03-22 05:05:00,
2013-03-22 01:10:00,25.3,3.3,29.90,NW,304,8.0,19.0,38,0.00,,,-99.99,Weather View 32 v60,2013-03-22 05:10:00,
2013-03-22 01:15:00,25.3,3.3,29.90,NW,308,5.0,19.0,38,0.00,,,-99.99,Weather View 32 v60,2013-03-22 05:15:00,
2013-03-22 01:20:00,25.3,3.3,29.90,NNW,331,5.0,19.0,38,0.00,,,-99.99,Weather View 32 v60,2013-03-22 05:20:00,
2013-03-22 01:25:00,25.3,3.8,29.90,NNE,22,4.0,19.0,39,0.00,,,-99.99,Weather View 32 v60,2013-03-22 05:25:00,
2013-03-22 01:35:00,25.2,3.7,29.90,NW,310,6.0,19.0,39,0.00,,,-99.99,Weather View 32 v60,2013-03-22 05:35:00,
2013-03-22 01:40:00,25.2,3.7,29.90,WNW,294,9.0,19.0,39,0.00,,,-99.99,Weather View 32 v60,2013-03-22 05:40:00,
2013-03-22 01:45:00,25.2,3.7,29.90,NNW,339,6.0,19.0,39,0.00,,,-99.99,Weather View 32 v60,2013-03-22 05:45:00,
2013-03-22 01:50:00,25.2,3.1,29.90,NNW,337,5.0,19.0,38,0.00,,,-99.99,Weather View 32 v60,2013-03-22 05:50:00,
2013-03-22 01:55:00,25.2,3.1,29.90,WNW,300,6.0,19.0,38,0.00,,,-99.99,Weather View 32 v60,2013-03-22 05:55:00,
2013-03-22 02:00:00,25.2,3.1,29.90,WNW,290,8.0,19.0,38,0.00,,,-99.99,Weather View 32 v60,2013-03-22 06:00:00,
2013-03-22 02:05:00,25.0,2.9,29.90,NNW,329,4.0,19.0,38,0.00,,,-99.99,Weather View 32 v60,2013-03-22 06:05:00,
2013-03-22 02:10:00,25.0,2.9,29.90,NW,311,4.0,15.0,38,0.00,,,-99.99,Weather View 32 v60,2013-03-22 06:10:00,
2013-03-22 02:15:00,25.0,3.5,29.90,NW,305,5.0,15.0,39,0.00,,,-99.99,Weather View 32 v60,2013-03-22 06:15:00,
2013-03-22 02:20:00,25.0,2.9,29.90,NW,322,4.0,12.0,38,0.00,,,-99.99,Weather View 32 v60,2013-03-22 06:20:00,
2013-03-22 02:25:00,25.0,2.9,29.90,WNW,299,4.0,12.0,38,0.00,,,-99.99,Weather View 32 v60,2013-03-22 06:25:00,
2013-03-22 02:30:00,25.0,2.9,29.90,WNW,297,3.0,12.0,38,0.00,,,-99.99,Weather View 32 v60,2013-03-22 06:30:00,
2013-03-22 02:35:00,25.0,2.9,29.93,NNW,328,4.0,12.0,38,0.00,,,-99.99,Weather View 32 v60,2013-03-22 06:35:00,
2013-03-22 02:40:00,24.8,2.8,29.93,NNW,336,5.0,12.0,38,0.00,,,-99.99,Weather View 32 v60,2013-03-22 06:40:00,
2013-03-22 02:45:00,24.8,2.8,29.93,NNW,338,6.0,12.0,38,0.00,,,-99.99,Weather View 32 v60,2013-03-22 06:45:00,
2013-03-22 02:50:00,24.8,2.8,29.90,North,3,8.0,12.0,38,0.00,,,-99.99,Weather View 32 v60,2013-03-22 06:50:00,
2013-03-22 02:55:00,24.8,3.3,29.90,NNW,339,4.0,12.0,39,0.00,,,-99.99,Weather View 32 v60,2013-03-22 06:55:00,
2013-03-22 03:00:00,24.8,3.3,29.90,NNW,335,4.0,12.0,39,0.00,,,-99.99,Weather View 32 v60,2013-03-22 07:00:00,
2013-03-22 03:05:00,24.8,3.3,29.90,NW,305,4.0,11.0,39,0.00,,,-99.99,Weather View 32 v60,2013-03-22 07:05:00,
2013-03-22 03:10:00,24.8,2.8,29.90,NW,307,4.0,11.0,38,0.00,,,-99.99,Weather View 32 v60,2013-03-22 07:10:00,
2013-03-22 03:15:00,24.8,3.3,29.90,NNW,331,4.0,11.0,39,0.00,,,-99.99,Weather View 32 v60,2013-03-22 07:15:00,
2013-03-22 03:20:00,24.6,3.2,29.93,WNW,301,5.0,11.0,39,0.00,,,-99.99,Weather View 32 v60,2013-03-22 07:20:00,
2013-03-22 03:25:00,24.6,3.2,29.93,WNW,288,5.0,11.0,39,0.00,,,-99.99,Weather View 32 v60,2013-03-22 07:25:00,
2013-03-22 03:30:00,24.6,3.2,29.93,WNW,301,5.0,11.0,39,0.00,,,-99.99,Weather View 32 v60,2013-03-22 07:30:00,
2013-03-22 03:35:00,24.6,3.2,29.93,WNW,301,5.0,11.0,39,0.00,,,-99.99,Weather View 32 v60,2013-03-22 07:35:00,
2013-03-22 03:45:00,24.6,3.2,29.93,NNW,344,3.0,11.0,39,0.00,,,-99.99,Weather View 32 v60,2013-03-22 07:45:00,
2013-03-22 03:50:00,24.6,3.7,29.93,NW,322,8.0,11.0,40,0.00,,,-99.99,Weather View 32 v60,2013-03-22 07:50:00,
2013-03-22 03:55:00,24.6,3.7,29.93,NW,320,3.0,11.0,40,0.00,,,-99.99,Weather View 32 v60,2013-03-22 07:55:00,
2013-03-22 04:00:00,24.4,3.6,29.93,NW,324,2.0,11.0,40,0.00,,,-99.99,Weather View 32 v60,2013-03-22 08:00:00,
2013-03-22 04:05:00,24.4,3.6,29.93,WNW,285,4.0,11.0,40,0.00,,,-99.99,Weather View 32 v60,2013-03-22 08:05:00,
2013-03-22 04:15:00,24.4,4.1,29.93,NW,310,3.0,10.0,41,0.00,,,-99.99,Weather View 32 v60,2013-03-22 08:15:00,
2013-03-22 04:20:00,24.4,4.1,29.93,WNW,300,8.0,10.0,41,0.00,,,-99.99,Weather View 32 v60,2013-03-22 08:20:00,
2013-03-22 04:25:00,24.4,4.1,29.93,NW,308,7.0,10.0,41,0.00,,,-99.99,Weather View 32 v60,2013-03-22 08:25:00,
2013-03-22 04:30:00,24.4,4.1,29.93,WNW,301,4.0,10.0,41,0.00,,,-99.99,Weather View 32 v60,2013-03-22 08:30:00,
2013-03-22 04:35:00,24.4,4.1,29.93,WNW,283,8.0,10.0,41,0.00,,,-99.99,Weather View 32 v60,2013-03-22 08:35:00,
2013-03-22 04:40:00,24.4,4.1,29.93,WNW,292,8.0,11.0,41,0.00,,,-99.99,Weather View 32 v60,2013-03-22 08:40:00,
2013-03-22 04:45:00,24.4,4.1,29.93,WNW,287,8.0,13.0,41,0.00,,,-99.99,Weather View 32 v60,2013-03-22 08:45:00,
2013-03-22 04:50:00,24.3,3.4,29.90,WNW,300,6.0,13.0,40,0.00,,,-99.99,Weather View 32 v60,2013-03-22 08:50:00,
2013-03-22 04:55:00,24.3,3.4,29.90,NW,306,4.0,13.0,40,0.00,,,-99.99,Weather View 32 v60,2013-03-22 08:55:00,
2013-03-22 05:00:00,24.3,3.4,29.90,WNW,288,10.0,13.0,40,0.00,,,-99.99,Weather View 32 v60,2013-03-22 09:00:00,
2013-03-22 05:05:00,24.3,3.4,29.93,NW,308,8.0,13.0,40,0.00,,,-99.99,Weather View 32 v60,2013-03-22 09:05:00,
2013-03-22 05:10:00,24.1,3.8,29.93,North,353,3.0,13.0,41,0.00,,,-99.99,Weather View 32 v60,2013-03-22 09:10:00,
2013-03-22 05:15:00,24.1,3.8,29.93,NW,311,6.0,13.0,41,0.00,,,-99.99,Weather View 32 v60,2013-03-22 09:15:00,
2013-03-22 05:20:00,24.1,3.8,29.93,NW,310,4.0,13.0,41,0.00,,,-99.99,Weather View 32 v60,2013-03-22 09:20:00,
2013-03-22 05:25:00,24.1,3.8,29.93,NW,305,6.0,13.0,41,0.00,,,-99.99,Weather View 32 v60,2013-03-22 09:25:00,
2013-03-22 05:30:00,24.1,3.8,29.93,NW,321,6.0,13.0,41,0.00,,,-99.99,Weather View 32 v60,2013-03-22 09:30:00,
2013-03-22 05:35:00,24.1,3.2,29.93,NW,309,5.0,13.0,40,0.00,,,-99.99,Weather View 32 v60,2013-03-22 09:35:00,
2013-03-22 05:40:00,24.1,3.2,29.93,NW,307,6.0,13.0,40,0.00,,,-99.99,Weather View 32 v60,2013-03-22 09:40:00,
2013-03-22 05:45:00,23.9,3.1,29.93,WNW,295,8.0,11.0,40,0.00,,,-99.99,Weather View 32 v60,2013-03-22 09:45:00,
2013-03-22 05:50:00,23.9,3.1,29.93,WNW,302,4.0,11.0,40,0.00,,,-99.99,Weather View 32 v60,2013-03-22 09:50:00,
2013-03-22 05:55:00,23.9,3.1,29.93,NW,318,4.0,11.0,40,0.00,,,-99.99,Weather View 32 v60,2013-03-22 09:55:00,
2013-03-22 06:00:00,23.7,2.9,29.93,WNW,297,8.0,11.0,40,0.00,,,-99.99,Weather View 32 v60,2013-03-22 10:00:00,
2013-03-22 06:05:00,23.7,2.9,29.93,WNW,295,6.0,11.0,40,0.00,,,-99.99,Weather View 32 v60,2013-03-22 10:05:00,
2013-03-22 06:10:00,23.7,2.9,29.93,NW,314,4.0,11.0,40,0.00,,,-99.99,Weather View 32 v60,2013-03-22 10:10:00,
2013-03-22 06:15:00,23.5,3.3,29.93,NW,308,3.0,11.0,41,0.00,,,-99.99,Weather View 32 v60,2013-03-22 10:15:00,
2013-03-22 06:20:00,23.5,3.3,29.93,WNW,300,5.0,11.0,41,0.00,,,-99.99,Weather View 32 v60,2013-03-22 10:20:00,
2013-03-22 06:25:00,23.5,3.3,29.93,WNW,293,5.0,11.0,41,0.00,,,-99.99,Weather View 32 v60,2013-03-22 10:25:00,
2013-03-22 06:30:00,23.5,3.3,29.93,NW,306,3.0,11.0,41,0.00,,,-99.99,Weather View 32 v60,2013-03-22 10:30:00,
2013-03-22 06:35:00,23.5,3.3,29.93,NW,304,3.0,11.0,41,0.00,,,-99.99,Weather View 32 v60,2013-03-22 10:35:00,
2013-03-22 06:40:00,23.5,3.3,29.93,WNW,303,4.0,11.0,41,0.00,,,-99.99,Weather View 32 v60,2013-03-22 10:40:00,
2013-03-22 06:45:00,23.5,3.3,29.93,WNW,289,5.0,10.0,41,0.00,,,-99.99,Weather View 32 v60,2013-03-22 10:45:00,
2013-03-22 06:50:00,23.5,3.3,29.93,WNW,303,3.0,8.0,41,0.00,,,-99.99,Weather View 32 v60,2013-03-22 10:50:00,
2013-03-22 06:55:00,23.5,3.3,29.93,WNW,303,4.0,8.0,41,0.00,,,-99.99,Weather View 32 v60,2013-03-22 10:55:00,
2013-03-22 07:00:00,23.4,3.6,29.93,West,280,4.0,8.0,42,0.00,,,-99.99,Weather View 32 v60,2013-03-22 11:00:00,
2013-03-22 07:05:00,23.4,3.6,29.93,West,267,4.0,8.0,42,0.00,,,-99.99,Weather View 32 v60,2013-03-22 11:05:00,
2013-03-22 07:10:00,23.4,3.6,29.93,WNW,299,3.0,8.0,42,0.00,,,-99.99,Weather View 32 v60,2013-03-22 11:10:00,
2013-03-22 07:15:00,23.4,3.6,29.93,West,276,3.0,8.0,42,0.00,,,-99.99,Weather View 32 v60,2013-03-22 11:15:00,
2013-03-22 07:20:00,23.4,3.6,29.93,WNW,293,5.0,8.0,42,0.00,,,-99.99,Weather View 32 v60,2013-03-22 11:20:00,
2013-03-22 07:25:00,23.4,3.6,29.93,WNW,293,5.0,9.0,42,0.00,,,-99.99,Weather View 32 v60,2013-03-22 11:25:00,
2013-03-22 07:30:00,23.4,3.6,29.93,WNW,297,6.0,9.0,42,0.00,,,-99.99,Weather View 32 v60,2013-03-22 11:30:00,
2013-03-22 07:35:00,23.4,3.6,29.93,WNW,302,4.0,9.0,42,0.00,,,-99.99,Weather View 32 v60,2013-03-22 11:35:00,
2013-03-22 07:40:00,23.4,3.6,29.93,NW,315,6.0,9.0,42,0.00,,,-99.99,Weather View 32 v60,2013-03-22 11:40:00,
2013-03-22 07:45:00,23.4,3.6,29.93,NW,310,5.0,9.0,42,0.00,,,-99.99,Weather View 32 v60,2013-03-22 11:45:00,
2013-03-22 07:50:00,23.4,3.6,29.96,WNW,287,4.0,9.0,42,0.00,,,-99.99,Weather View 32 v60,2013-03-22 11:50:00,
2013-03-22 07:55:00,23.4,3.6,29.96,WNW,296,5.0,9.0,42,0.00,,,-99.99,Weather View 32 v60,2013-03-22 11:55:00,
2013-03-22 08:00:00,23.4,3.6,29.96,WNW,289,6.0,9.0,42,0.00,,,-99.99,Weather View 32 v60,2013-03-22 12:00:00,
2013-03-22 08:05:00,23.4,3.6,29.96,WNW,295,6.0,9.0,42,0.00,,,-99.99,Weather View 32 v60,2013-03-22 12:05:00,
2013-03-22 08:10:00,23.4,3.6,29.96,WNW,299,6.0,9.0,42,0.00,,,-99.99,Weather View 32 v60,2013-03-22 12:10:00,
2013-03-22 08:15:00,23.4,3.6,29.96,WNW,297,4.0,9.0,42,0.00,,,-99.99,Weather View 32 v60,2013-03-22 12:15:00,
2013-03-22 08:20:00,23.5,3.8,29.96,WNW,292,6.0,9.0,42,0.00,,,-99.99,Weather View 32 v60,2013-03-22 12:20:00,
2013-03-22 08:25:00,23.5,3.8,29.96,WNW,297,4.0,9.0,42,0.00,,,-99.99,Weather View 32 v60,2013-03-22 12:25:00,
2013-03-22 08:30:00,23.5,3.8,29.96,WNW,291,6.0,8.0,42,0.00,,,-99.99,Weather View 32 v60,2013-03-22 12:30:00,
2013-03-22 08:35:00,23.5,3.8,29.96,NW,305,3.0,8.0,42,0.00,,,-99.99,Weather View 32 v60,2013-03-22 12:35:00,
2013-03-22 08:40:00,23.5,3.8,29.96,WNW,283,6.0,8.0,42,0.00,,,-99.99,Weather View 32 v60,2013-03-22 12:40:00,
2013-03-22 08:45:00,23.5,3.8,29.96,WSW,255,5.0,8.0,42,0.00,,,-99.99,Weather View 32 v60,2013-03-22 12:45:00,
2013-03-22 08:50:00,23.7,4.0,29.96,NW,304,5.0,8.0,42,0.00,,,-99.99,Weather View 32 v60,2013-03-22 12:50:00,
2013-03-22 08:55:00,23.7,4.0,29.96,WNW,297,6.0,8.0,42,0.00,,,-99.99,Weather View 32 v60,2013-03-22 12:55:00,
2013-03-22 09:00:00,23.7,4.0,29.96,WNW,293,5.0,9.0,42,0.00,,,-99.99,Weather View 32 v60,2013-03-22 13:00:00,
2013-03-22 09:05:00,23.9,4.1,29.96,NW,315,6.0,11.0,42,0.00,,,-99.99,Weather View 32 v60,2013-03-22 13:05:00,
2013-03-22 09:10:00,23.9,4.1,29.96,WNW,298,6.0,11.0,42,0.00,,,-99.99,Weather View 32 v60,2013-03-22 13:10:00,
2013-03-22 09:15:00,24.1,4.3,29.96,WNW,287,7.0,11.0,42,0.00,,,-99.99,Weather View 32 v60,2013-03-22 13:15:00,
2013-03-22 09:20:00,24.1,4.3,29.96,WNW,292,5.0,11.0,42,0.00,,,-99.99,Weather View 32 v60,2013-03-22 13:20:00,
2013-03-22 09:25:00,24.1,4.3,29.96,WNW,300,5.0,11.0,42,0.00,,,-99.99,Weather View 32 v60,2013-03-22 13:25:00,
2013-03-22 09:30:00,24.3,4.5,29.96,WNW,295,4.0,11.0,42,0.00,,,-99.99,Weather View 32 v60,2013-03-22 13:30:00,
2013-03-22 09:40:00,24.4,4.6,29.96,WNW,298,6.0,11.0,42,0.00,,,-99.99,Weather View 32 v60,2013-03-22 13:40:00,
2013-03-22 09:45:00,24.4,4.6,29.96,NW,310,6.0,11.0,42,0.00,,,-99.99,Weather View 32 v60,2013-03-22 13:45:00,
2013-03-22 09:50:00,24.4,4.6,29.96,NW,305,6.0,11.0,42,0.00,,,-99.99,Weather View 32 v60,2013-03-22 13:50:00,
2013-03-22 09:55:00,24.4,4.6,29.96,WNW,298,8.0,11.0,42,0.00,,,-99.99,Weather View 32 v60,2013-03-22 13:55:00,
2013-03-22 10:00:00,24.4,4.6,29.96,West,270,8.0,11.0,42,0.00,,,-99.99,Weather View 32 v60,2013-03-22 14:00:00,
2013-03-22 10:05:00,24.6,4.8,29.96,WNW,283,6.0,11.0,42,0.00,,,-99.99,Weather View 32 v60,2013-03-22 14:05:00,
2013-03-22 10:10:00,24.6,4.8,29.96,WNW,286,8.0,11.0,42,0.00,,,-99.99,Weather View 32 v60,2013-03-22 14:10:00,
2013-03-22 10:15:00,24.8,5.0,29.96,NW,305,4.0,11.0,42,0.00,,,-99.99,Weather View 32 v60,2013-03-22 14:15:00,
2013-03-22 10:20:00,24.8,5.0,29.96,WNW,286,8.0,11.0,42,0.00,,,-99.99,Weather View 32 v60,2013-03-22 14:20:00,
2013-03-22 10:25:00,25.0,5.1,29.96,West,278,8.0,11.0,42,0.00,,,-99.99,Weather View 32 v60,2013-03-22 14:25:00,
2013-03-22 10:35:00,25.2,5.3,29.96,WNW,286,8.0,11.0,42,0.00,,,-99.99,Weather View 32 v60,2013-03-22 14:35:00,
2013-03-22 10:40:00,25.3,5.4,29.96,West,276,9.0,11.0,42,0.00,,,-99.99,Weather View 32 v60,2013-03-22 14:40:00,
2013-03-22 10:50:00,25.5,5.6,29.96,West,274,9.0,12.0,42,0.00,,,-99.99,Weather View 32 v60,2013-03-22 14:50:00,
2013-03-22 10:55:00,25.7,5.8,29.96,West,273,10.0,12.0,42,0.00,,,-99.99,Weather View 32 v60,2013-03-22 14:55:00,
2013-03-22 11:00:00,25.7,5.8,29.96,West,277,8.0,12.0,42,0.00,,,-99.99,Weather View 32 v60,2013-03-22 15:00:00,
2013-03-22 11:05:00,25.9,5.9,29.96,West,272,8.0,12.0,42,0.00,,,-99.99,Weather View 32 v60,2013-03-22 15:05:00,
2013-03-22 11:10:00,26.1,6.1,29.96,NW,306,9.0,12.0,42,0.00,,,-99.99,Weather View 32 v60,2013-03-22 15:10:00,
2013-03-22 11:15:00,26.1,6.1,29.96,West,267,8.0,12.0,42,0.00,,,-99.99,Weather View 32 v60,2013-03-22 15:15:00,
2013-03-22 11:20:00,26.2,6.3,29.93,WNW,283,8.0,12.0,42,0.00,,,-99.99,Weather View 32 v60,2013-03-22 15:20:00,
2013-03-22 11:25:00,26.4,6.4,29.93,WNW,300,9.0,12.0,42,0.00,,,-99.99,Weather View 32 v60,2013-03-22 15:25:00,
2013-03-22 11:30:00,26.6,6.6,29.93,West,280,12.0,13.0,42,0.00,,,-99.99,Weather View 32 v60,2013-03-22 15:30:00,
2013-03-22 11:35:00,26.8,6.2,29.93,WNW,295,8.0,13.0,41,0.00,,,-99.99,Weather View 32 v60,2013-03-22 15:35:00,
2013-03-22 11:40:00,27.0,6.4,29.93,West,280,9.0,13.0,41,0.00,,,-99.99,Weather View 32 v60,2013-03-22 15:40:00,
2013-03-22 11:45:00,27.0,6.4,29.93,West,271,6.0,13.0,41,0.00,,,-99.99,Weather View 32 v60,2013-03-22 15:45:00,
2013-03-22 11:50:00,27.1,6.5,29.93,West,277,8.0,13.0,41,0.00,,,-99.99,Weather View 32 v60,2013-03-22 15:50:00,
2013-03-22 11:55:00,27.3,6.7,29.93,West,275,11.0,13.0,41,0.00,,,-99.99,Weather View 32 v60,2013-03-22 15:55:00,
2013-03-22 12:00:00,27.5,6.9,29.93,WNW,285,13.0,13.0,41,0.00,,,-99.99,Weather View 32 v60,2013-03-22 16:00:00,
2013-03-22 12:05:00,27.7,7.0,29.93,West,273,11.0,13.0,41,0.00,,,-99.99,Weather View 32 v60,2013-03-22 16:05:00,
2013-03-22 12:10:00,27.9,7.2,29.93,West,273,10.0,14.0,41,0.00,,,-99.99,Weather View 32 v60,2013-03-22 16:10:00,
2013-03-22 12:15:00,28.0,7.4,29.93,NW,310,8.0,14.0,41,0.00,,,-99.99,Weather View 32 v60,2013-03-22 16:15:00,
2013-03-22 12:20:00,28.0,7.4,29.93,WNW,290,13.0,14.0,41,0.00,,,-99.99,Weather View 32 v60,2013-03-22 16:20:00,
2013-03-22 12:25:00,28.2,7.5,29.93,WNW,298,8.0,14.0,41,0.00,,,-99.99,Weather View 32 v60,2013-03-22 16:25:00,
2013-03-22 12:30:00,28.4,7.7,29.93,WNW,285,13.0,14.0,41,0.00,,,-99.99,Weather View 32 v60,2013-03-22 16:30:00,
2013-03-22 12:35:00,28.6,7.8,29.93,WNW,300,10.0,14.0,41,0.00,,,-99.99,Weather View 32 v60,2013-03-22 16:35:00,
2013-03-22 12:40:00,28.6,7.8,29.93,WNW,288,11.0,14.0,41,0.00,,,-99.99,Weather View 32 v60,2013-03-22 16:40:00,
2013-03-22 12:45:00,28.8,7.5,29.93,West,277,10.0,14.0,40,0.00,,,-99.99,Weather View 32 v60,2013-03-22 16:45:00,
2013-03-22 12:50:00,28.8,7.5,29.93,WNW,285,9.0,14.0,40,0.00,,,-99.99,Weather View 32 v60,2013-03-22 16:50:00,
2013-03-22 12:55:00,28.9,7.6,29.93,WNW,291,15.0,15.0,40,0.00,,,-99.99,Weather View 32 v60,2013-03-22 16:55:00,
2013-03-22 13:00:00,28.9,7.6,29.93,West,281,9.0,15.0,40,0.00,,,-99.99,Weather View 32 v60,2013-03-22 17:00:00,
2013-03-22 13:05:00,29.1,7.8,29.93,WNW,287,11.0,15.0,40,0.00,,,-99.99,Weather View 32 v60,2013-03-22 17:05:00,
2013-03-22 13:15:00,29.5,7.6,29.93,WSW,257,8.0,15.0,39,0.00,,,-99.99,Weather View 32 v60,2013-03-22 17:15:00,
2013-03-22 13:20:00,29.5,7.6,29.93,NW,314,6.0,15.0,39,0.00,,,-99.99,Weather View 32 v60,2013-03-22 17:20:00,
2013-03-22 13:25:00,29.7,7.7,29.93,WNW,296,13.0,15.0,39,0.00,,,-99.99,Weather View 32 v60,2013-03-22 17:25:00,
2013-03-22 13:30:00,29.7,7.7,29.93,WNW,291,11.0,15.0,39,0.00,,,-99.99,Weather View 32 v60,2013-03-22 17:30:00,
2013-03-22 13:35:00,29.8,7.9,29.93,WNW,303,9.0,15.0,39,0.00,,,-99.99,Weather View 32 v60,2013-03-22 17:35:00,
2013-03-22 13:40:00,30.0,7.5,29.93,NW,313,8.0,15.0,38,0.00,,,-99.99,Weather View 32 v60,2013-03-22 17:40:00,
2013-03-22 13:45:00,30.2,7.0,29.93,WNW,287,11.0,15.0,37,0.00,,,-99.99,Weather View 32 v60,2013-03-22 17:45:00,
2013-03-22 13:50:00,30.4,7.8,29.93,WNW,292,13.0,15.0,38,0.00,,,-99.99,Weather View 32 v60,2013-03-22 17:50:00,
2013-03-22 14:00:00,30.7,7.5,29.93,West,279,10.0,15.0,37,0.00,,,-99.99,Weather View 32 v60,2013-03-22 18:00:00,
2013-03-22 14:05:00,30.9,7.7,29.93,WSW,246,9.0,15.0,37,0.00,,,-99.99,Weather View 32 v60,2013-03-22 18:05:00,
2013-03-22 14:10:00,31.1,7.8,29.93,West,264,8.0,15.0,37,0.00,,,-99.99,Weather View 32 v60,2013-03-22 18:10:00,
2013-03-22 14:20:00,31.5,7.6,29.93,WNW,290,13.0,23.0,36,0.00,,,-99.99,Weather View 32 v60,2013-03-22 18:20:00,
2013-03-22 14:25:00,31.8,7.9,29.93,WSW,254,11.0,23.0,36,0.00,,,-99.99,Weather View 32 v60,2013-03-22 18:25:00,
2013-03-22 14:30:00,32.0,8.0,29.93,West,264,8.0,23.0,36,0.00,,,-99.99,Weather View 32 v60,2013-03-22 18:30:00,
2013-03-22 14:35:00,32.2,8.2,29.93,WNW,282,9.0,23.0,36,0.00,,,-99.99,Weather View 32 v60,2013-03-22 18:35:00,
2013-03-22 14:45:00,32.5,7.9,29.93,WNW,292,9.0,23.0,35,0.00,,,-99.99,Weather View 32 v60,2013-03-22 18:45:00,
2013-03-22 14:50:00,32.5,7.9,29.93,SW,236,5.0,23.0,35,0.00,,,-99.99,Weather View 32 v60,2013-03-22 18:50:00,
2013-03-22 14:55:00,32.5,8.5,29.93,WSW,245,8.0,23.0,36,0.00,,,-99.99,Weather View 32 v60,2013-03-22 18:55:00,
2013-03-22 15:00:00,32.7,8.7,29.93,WNW,283,9.0,23.0,36,0.00,,,-99.99,Weather View 32 v60,2013-03-22 19:00:00,
2013-03-22 15:05:00,32.9,8.2,29.93,WSW,247,10.0,23.0,35,0.00,,,-99.99,Weather View 32 v60,2013-03-22 19:05:00,
2013-03-22 15:10:00,32.9,8.2,29.93,WSW,242,11.0,23.0,35,0.00,,,-99.99,Weather View 32 v60,2013-03-22 19:10:00,
2013-03-22 15:15:00,33.1,8.4,29.93,WNW,294,13.0,23.0,35,0.00,,,-99.99,Weather View 32 v60,2013-03-22 19:15:00,
2013-03-22 15:20:00,33.1,8.4,29.93,West,263,8.0,15.0,35,0.00,,,-99.99,Weather View 32 v60,2013-03-22 19:20:00,
2013-03-22 15:25:00,33.1,8.4,29.93,WSW,238,10.0,14.0,35,0.00,,,-99.99,Weather View 32 v60,2013-03-22 19:25:00,
2013-03-22 15:35:00,33.3,8.5,29.93,WNW,302,9.0,13.0,35,0.00,,,-99.99,Weather View 32 v60,2013-03-22 19:35:00,
2013-03-22 15:40:00,33.4,8.7,29.93,WSW,258,8.0,13.0,35,0.00,,,-99.99,Weather View 32 v60,2013-03-22 19:40:00,
2013-03-22 15:45:00,33.6,8.9,29.93,West,272,5.0,13.0,35,0.00,,,-99.99,Weather View 32 v60,2013-03-22 19:45:00,
2013-03-22 15:50:00,33.8,9.0,29.93,WNW,285,6.0,13.0,35,0.00,,,-99.99,Weather View 32 v60,2013-03-22 19:50:00,
2013-03-22 15:55:00,33.8,9.0,29.93,WNW,302,11.0,13.0,35,0.00,,,-99.99,Weather View 32 v60,2013-03-22 19:55:00,
2013-03-22 16:05:00,34.0,9.2,29.93,WNW,303,6.0,15.0,35,0.00,,,-99.99,Weather View 32 v60,2013-03-22 20:05:00,
2013-03-22 16:10:00,34.0,8.5,29.93,NW,324,5.0,15.0,34,0.00,,,-99.99,Weather View 32 v60,2013-03-22 20:10:00,
2013-03-22 16:15:00,34.0,9.2,29.93,WSW,258,8.0,15.0,35,0.00,,,-99.99,Weather View 32 v60,2013-03-22 20:15:00,
2013-03-22 16:20:00,34.0,9.2,29.93,WNW,295,7.0,15.0,35,0.00,,,-99.99,Weather View 32 v60,2013-03-22 20:20:00,
2013-03-22 16:25:00,34.0,8.5,29.93,WNW,286,11.0,15.0,34,0.00,,,-99.99,Weather View 32 v60,2013-03-22 20:25:00,
2013-03-22 16:30:00,34.0,8.5,29.93,WNW,301,6.0,15.0,34,0.00,,,-99.99,Weather View 32 v60,2013-03-22 20:30:00,
2013-03-22 16:35:00,34.0,8.5,29.93,WNW,297,7.0,15.0,34,0.00,,,-99.99,Weather View 32 v60,2013-03-22 20:35:00,
2013-03-22 16:40:00,34.2,8.7,29.93,WNW,295,11.0,15.0,34,0.00,,,-99.99,Weather View 32 v60,2013-03-22 20:40:00,
2013-03-22 16:45:00,34.2,8.7,29.93,West,274,5.0,15.0,34,0.00,,,-99.99,Weather View 32 v60,2013-03-22 20:45:00,
2013-03-22 16:50:00,34.2,8.7,29.93,NW,307,5.0,15.0,34,0.00,,,-99.99,Weather View 32 v60,2013-03-22 20:50:00,
2013-03-22 16:55:00,34.3,8.9,29.93,WNW,297,6.0,15.0,34,0.00,,,-99.99,Weather View 32 v60,2013-03-22 20:55:00,
2013-03-22 17:00:00,34.3,8.9,29.93,WNW,294,15.0,15.0,34,0.00,,,-99.99,Weather View 32 v60,2013-03-22 21:00:00,
2013-03-22 17:05:00,34.3,8.9,29.93,WNW,294,8.0,15.0,34,0.00,,,-99.99,Weather View 32 v60,2013-03-22 21:05:00,
2013-03-22 17:15:00,34.3,8.9,29.93,WNW,295,13.0,15.0,34,0.00,,,-99.99,Weather View 32 v60,2013-03-22 21:15:00,
2013-03-22 17:20:00,34.3,8.9,29.93,West,271,12.0,15.0,34,0.00,,,-99.99,Weather View 32 v60,2013-03-22 21:20:00,
2013-03-22 17:25:00,34.3,8.9,29.93,WNW,294,4.0,15.0,34,0.00,,,-99.99,Weather View 32 v60,2013-03-22 21:25:00,
2013-03-22 17:30:00,34.3,8.9,29.93,NNW,330,4.0,15.0,34,0.00,,,-99.99,Weather View 32 v60,2013-03-22 21:30:00,
2013-03-22 17:35:00,34.3,8.9,29.93,NNW,340,3.0,15.0,34,0.00,,,-99.99,Weather View 32 v60,2013-03-22 21:35:00,
2013-03-22 17:40:00,34.5,9.0,29.93,NNW,332,3.0,15.0,34,0.00,,,-99.99,Weather View 32 v60,2013-03-22 21:40:00,
2013-03-22 17:45:00,34.5,9.0,29.93,WNW,293,5.0,15.0,34,0.00,,,-99.99,Weather View 32 v60,2013-03-22 21:45:00,
2013-03-22 17:50:00,34.5,9.0,29.93,NNW,331,4.0,15.0,34,0.00,,,-99.99,Weather View 32 v60,2013-03-22 21:50:00,
2013-03-22 17:55:00,34.5,9.0,29.93,NNW,337,3.0,15.0,34,0.00,,,-99.99,Weather View 32 v60,2013-03-22 21:55:00,
2013-03-22 18:00:00,34.5,9.0,29.93,NNW,329,4.0,15.0,34,0.00,,,-99.99,Weather View 32 v60,2013-03-22 22:00:00,
2013-03-22 18:05:00,34.5,9.7,29.93,NW,306,4.0,15.0,35,0.00,,,-99.99,Weather View 32 v60,2013-03-22 22:05:00,
2013-03-22 18:10:00,34.5,9.7,29.93,NNW,343,3.0,15.0,35,0.00,,,-99.99,Weather View 32 v60,2013-03-22 22:10:00,
2013-03-22 18:15:00,34.5,9.7,29.93,NNE,14,4.0,13.0,35,0.00,,,-99.99,Weather View 32 v60,2013-03-22 22:15:00,
2013-03-22 18:20:00,34.5,9.7,29.93,NNW,348,3.0,12.0,35,0.00,,,-99.99,Weather View 32 v60,2013-03-22 22:20:00,
2013-03-22 18:25:00,34.5,9.7,29.93,NNW,332,4.0,11.0,35,0.00,,,-99.99,Weather View 32 v60,2013-03-22 22:25:00,
2013-03-22 18:30:00,34.5,10.3,29.93,North,0,3.0,11.0,36,0.00,,,-99.99,Weather View 32 v60,2013-03-22 22:30:00,
2013-03-22 18:35:00,34.5,9.7,29.93,NNW,345,3.0,11.0,35,0.00,,,-99.99,Weather View 32 v60,2013-03-22 22:35:00,
2013-03-22 18:40:00,34.5,9.7,29.93,NNW,330,3.0,11.0,35,0.00,,,-99.99,Weather View 32 v60,2013-03-22 22:40:00,
2013-03-22 18:45:00,34.5,9.7,29.93,NNE,18,3.0,11.0,35,0.00,,,-99.99,Weather View 32 v60,2013-03-22 22:45:00,
2013-03-22 18:50:00,34.5,9.7,29.93,NW,316,6.0,11.0,35,0.00,,,-99.99,Weather View 32 v60,2013-03-22 22:50:00,
2013-03-22 18:55:00,34.5,9.7,29.93,NNW,331,4.0,11.0,35,0.00,,,-99.99,Weather View 32 v60,2013-03-22 22:55:00,
2013-03-22 19:00:00,34.3,9.5,29.93,NNW,342,4.0,11.0,35,0.00,,,-99.99,Weather View 32 v60,2013-03-22 23:00:00,
2013-03-22 19:05:00,34.3,9.5,29.93,NW,322,3.0,11.0,35,0.00,,,-99.99,Weather View 32 v60,2013-03-22 23:05:00,
2013-03-22 19:10:00,34.0,9.2,29.93,NNW,335,4.0,11.0,35,0.00,,,-99.99,Weather View 32 v60,2013-03-22 23:10:00,
2013-03-22 19:15:00,34.0,9.2,29.93,NNW,348,4.0,10.0,35,0.00,,,-99.99,Weather View 32 v60,2013-03-22 23:15:00,
2013-03-22 19:20:00,33.8,9.6,29.93,NW,312,4.0,10.0,36,0.00,,,-99.99,Weather View 32 v60,2013-03-22 23:20:00,
2013-03-22 19:25:00,33.8,9.6,29.93,North,353,4.0,10.0,36,0.00,,,-99.99,Weather View 32 v60,2013-03-22 23:25:00,
2013-03-22 19:30:00,33.6,10.1,29.93,NNW,342,4.0,10.0,37,0.00,,,-99.99,Weather View 32 v60,2013-03-22 23:30:00,
2013-03-22 19:40:00,33.4,9.9,29.96,NNW,335,3.0,10.0,37,0.00,,,-99.99,Weather View 32 v60,2013-03-22 23:40:00,
2013-03-22 19:45:00,33.3,9.8,29.96,NW,325,0.0,10.0,37,0.00,,,-99.99,Weather View 32 v60,2013-03-22 23:45:00,
2013-03-22 19:50:00,33.1,9.6,29.96,NNW,330,3.0,10.0,37,0.00,,,-99.99,Weather View 32 v60,2013-03-22 23:50:00,
2013-03-22 19:55:00,33.1,10.2,29.96,NW,326,0.0,6.0,38,0.00,,,-99.99,Weather View 32 v60,2013-03-22 23:55:00,
2013-03-22 20:00:00,32.9,10.0,29.96,NW,326,0.0,6.0,38,0.00,,,-99.99,Weather View 32 v60,2013-03-23 00:00:00,
2013-03-22 20:05:00,32.7,9.9,29.96,NNW,328,0.0,6.0,38,0.00,,,-99.99,Weather View 32 v60,2013-03-23 00:05:00,
2013-03-22 20:10:00,32.5,9.7,29.96,NNW,329,0.0,5.0,38,0.00,,,-99.99,Weather View 32 v60,2013-03-23 00:10:00,
2013-03-22 20:15:00,32.5,9.7,29.96,NNW,329,0.0,5.0,38,0.00,,,-99.99,Weather View 32 v60,2013-03-23 00:15:00,
2013-03-22 20:20:00,32.4,9.6,29.96,NNW,329,0.0,5.0,38,0.00,,,-99.99,Weather View 32 v60,2013-03-23 00:20:00,
2013-03-22 20:25:00,32.2,10.0,29.96,NNW,329,0.0,5.0,39,0.00,,,-99.99,Weather View 32 v60,2013-03-23 00:25:00,
2013-03-22 20:30:00,32.0,9.8,29.96,NNW,329,0.0,4.0,39,0.00,,,-99.99,Weather View 32 v60,2013-03-23 00:30:00,
2013-03-22 20:35:00,31.8,9.7,29.96,NNW,329,0.0,4.0,39,0.00,,,-99.99,Weather View 32 v60,2013-03-23 00:35:00,
2013-03-22 20:40:00,31.6,9.5,29.96,NNW,329,0.0,4.0,39,0.00,,,-99.99,Weather View 32 v60,2013-03-23 00:40:00,
2013-03-22 20:45:00,31.5,9.9,29.96,NNW,329,0.0,3.0,40,0.00,,,-99.99,Weather View 32 v60,2013-03-23 00:45:00,
2013-03-22 20:50:00,31.3,9.7,29.96,NNW,329,0.0,3.0,40,0.00,,,-99.99,Weather View 32 v60,2013-03-23 00:50:00,
2013-03-22 20:55:00,31.1,9.6,29.96,NNW,329,0.0,0.0,40,0.00,,,-99.99,Weather View 32 v60,2013-03-23 00:55:00,
2013-03-22 21:00:00,30.9,9.4,29.96,NNW,329,0.0,0.0,40,0.00,,,-99.99,Weather View 32 v60,2013-03-23 01:00:00,
2013-03-22 21:05:00,30.9,9.4,29.96,WNW,303,0.0,3.0,40,0.00,,,-99.99,Weather View 32 v60,2013-03-23 01:05:00,
2013-03-22 21:10:00,30.7,9.3,29.96,WNW,303,0.0,3.0,40,0.00,,,-99.99,Weather View 32 v60,2013-03-23 01:10:00,
2013-03-22 21:15:00,30.7,9.8,29.96,NW,320,3.0,4.0,41,0.00,,,-99.99,Weather View 32 v60,2013-03-23 01:15:00,
2013-03-22 21:20:00,30.7,9.8,29.99,NW,307,0.0,4.0,41,0.00,,,-99.99,Weather View 32 v60,2013-03-23 01:20:00,
2013-03-22 21:30:00,30.7,9.8,29.99,WNW,299,4.0,5.0,41,0.00,,,-99.99,Weather View 32 v60,2013-03-23 01:30:00,
2013-03-22 21:35:00,30.6,9.6,29.99,WNW,299,4.0,5.0,41,0.00,,,-99.99,Weather View 32 v60,2013-03-23 01:35:00,
2013-03-22 21:40:00,30.6,9.6,29.99,NW,305,3.0,5.0,41,0.00,,,-99.99,Weather View 32 v60,2013-03-23 01:40:00,
2013-03-22 21:45:00,30.6,9.6,29.99,WNW,302,0.0,5.0,41,0.00,,,-99.99,Weather View 32 v60,2013-03-23 01:45:00,
2013-03-22 21:50:00,30.4,9.5,29.99,WNW,300,0.0,5.0,41,0.00,,,-99.99,Weather View 32 v60,2013-03-23 01:50:00,
2013-03-22 22:00:00,30.4,9.5,29.99,WNW,286,4.0,5.0,41,0.00,,,-99.99,Weather View 32 v60,2013-03-23 02:00:00,
2013-03-22 22:05:00,30.6,9.6,29.99,NW,304,0.0,5.0,41,0.00,,,-99.99,Weather View 32 v60,2013-03-23 02:05:00,
2013-03-22 22:10:00,30.6,9.6,29.99,NW,306,0.0,5.0,41,0.00,,,-99.99,Weather View 32 v60,2013-03-23 02:10:00,
2013-03-22 22:15:00,30.6,9.6,29.99,NW,306,0.0,5.0,41,0.00,,,-99.99,Weather View 32 v60,2013-03-23 02:15:00,
2013-03-22 22:20:00,30.6,9.6,29.99,NW,306,0.0,5.0,41,0.00,,,-99.99,Weather View 32 v60,2013-03-23 02:20:00,
2013-03-22 22:25:00,30.4,9.5,29.99,NW,306,0.0,5.0,41,0.00,,,-99.99,Weather View 32 v60,2013-03-23 02:25:00,
2013-03-22 22:30:00,30.4,9.5,29.99,NW,325,0.0,5.0,41,0.00,,,-99.99,Weather View 32 v60,2013-03-23 02:30:00,
2013-03-22 22:40:00,30.6,10.2,29.99,NNW,346,0.0,5.0,42,0.00,,,-99.99,Weather View 32 v60,2013-03-23 02:40:00,
2013-03-22 22:45:00,30.6,10.2,29.99,North,353,0.0,5.0,42,0.00,,,-99.99,Weather View 32 v60,2013-03-23 02:45:00,
2013-03-22 22:50:00,30.6,10.2,29.99,NNW,341,3.0,5.0,42,0.00,,,-99.99,Weather View 32 v60,2013-03-23 02:50:00,
2013-03-22 22:55:00,30.7,10.3,29.99,NW,305,5.0,5.0,42,0.00,,,-99.99,Weather View 32 v60,2013-03-23 02:55:00,
2013-03-22 23:00:00,30.7,10.3,29.99,North,353,0.0,5.0,42,0.00,,,-99.99,Weather View 32 v60,2013-03-23 03:00:00,
2013-03-22 23:05:00,30.7,10.3,29.99,NNW,330,3.0,5.0,42,0.00,,,-99.99,Weather View 32 v60,2013-03-23 03:05:00,
2013-03-22 23:10:00,30.7,10.3,29.99,NNW,345,3.0,5.0,42,0.00,,,-99.99,Weather View 32 v60,2013-03-23 03:10:00,
2013-03-22 23:15:00,30.7,10.3,29.99,NW,319,0.0,5.0,42,0.00,,,-99.99,Weather View 32 v60,2013-03-23 03:15:00,
2013-03-22 23:20:00,30.7,10.3,29.99,NNW,341,0.0,5.0,42,0.00,,,-99.99,Weather View 32 v60,2013-03-23 03:20:00,
2013-03-22 23:25:00,30.7,10.3,29.99,NNW,327,0.0,5.0,42,0.00,,,-99.99,Weather View 32 v60,2013-03-23 03:25:00,
2013-03-22 23:30:00,30.7,10.3,29.99,WNW,285,6.0,6.0,42,0.00,,,-99.99,Weather View 32 v60,2013-03-23 03:30:00,
2013-03-22 23:35:00,30.7,10.3,29.99,NNW,348,0.0,6.0,42,0.00,,,-99.99,Weather View 32 v60,2013-03-23 03:35:00,
2013-03-22 23:40:00,30.7,10.3,29.99,NNW,343,6.0,7.0,42,0.00,,,-99.99,Weather View 32 v60,2013-03-23 03:40:00,
2013-03-22 23:50:00,30.7,10.3,29.99,NW,315,4.0,7.0,42,0.00,,,-99.99,Weather View 32 v60,2013-03-23 03:50:00,
2013-03-22 23:55:00,30.7,10.3,29.99,NW,322,0.0,7.0,42,0.00,,,-99.99,Weather View 32 v60,2013-03-23 03:55:00,